TimeEDT,TemperatureF,Dew PointF,Humidity,Sea Level PressureIn,VisibilityMPH,Wind Direction,Wind SpeedMPH,Gust SpeedMPH,PrecipitationIn,Events,Conditions,WindDirDegrees,DateUTC
12:53 AM,32.0,23.0,69,30.15,10.0,SSE,10.4,-,N/A,,Overcast,150,2013-03-11 04:53:00
1:53 AM,32.0,23.0,69,30.14,10.0,SSE,12.7,-,N/A,,Overcast,160,2013-03-11 05:53:00
2:53 AM,32.0,23.0,69,30.12,10.0,SSE,11.5,-,N/A,,Overcast,160,2013-03-11 06:53:00
3:53 AM,32.0,24.1,73,30.11,10.0,SSE,10.4,-,N/A,,Overcast,160,2013-03-11 07:53:00
4:53 AM,32.0,25.0,75,30.11,10.0,South,9.2,-,N/A,,Overcast,170,2013-03-11 08:53:00
5:53 AM,30.9,25.0,79,30.12,10.0,South,10.4,-,N/A,,Overcast,170,2013-03-11 09:53:00
6:53 AM,30.9,25.0,79,30.13,10.0,South,8.1,-,N/A,,Overcast,170,2013-03-11 10:53:00
7:53 AM,30.0,26.1,85,30.14,10.0,South,9.2,-,N/A,,Mostly Cloudy,170,2013-03-11 11:53:00
8:53 AM,30.9,26.1,82,30.13,10.0,SSE,10.4,-,N/A,,Scattered Clouds,160,2013-03-11 12:53:00
9:53 AM,33.1,27.0,78,30.13,10.0,SSE,10.4,-,N/A,,Partly Cloudy,150,2013-03-11 13:53:00
10:53 AM,35.1,28.0,76,30.13,10.0,SSE,8.1,-,N/A,,Partly Cloudy,150,2013-03-11 14:53:00
11:53 AM,37.0,28.0,70,30.11,10.0,SSE,10.4,-,N/A,,Partly Cloudy,150,2013-03-11 15:53:00
12:53 PM,39.9,28.0,63,30.12,10.0,SSE,9.2,-,N/A,,Overcast,150,2013-03-11 16:53:00
1:53 PM,42.1,28.9,60,30.10,10.0,SSE,8.1,-,N/A,,Partly Cloudy,150,2013-03-11 17:53:00
2:53 PM,41.0,28.9,62,30.08,10.0,SE,10.4,-,N/A,,Partly Cloudy,140,2013-03-11 18:53:00
3:53 PM,39.9,30.0,68,30.08,10.0,SSE,10.4,-,N/A,,Scattered Clouds,150,2013-03-11 19:53:00
4:53 PM,39.9,30.0,68,30.05,10.0,SE,12.7,-,N/A,,Mostly Cloudy,140,2013-03-11 20:53:00
5:53 PM,39.0,30.0,70,30.06,10.0,SE,11.5,-,N/A,,Overcast,140,2013-03-11 21:53:00
6:53 PM,37.9,30.0,73,30.05,10.0,SE,9.2,-,N/A,,Scattered Clouds,140,2013-03-11 22:53:00
7:53 PM,39.0,30.9,73,30.04,10.0,SSE,13.8,-,N/A,,Clear,150,2013-03-11 23:53:00
8:53 PM,39.0,30.0,70,30.04,10.0,SSE,16.1,-,N/A,,Overcast,160,2013-03-12 00:53:00
9:53 PM,39.0,30.0,70,30.03,10.0,SSE,15.0,20.7,N/A,,Overcast,160,2013-03-12 01:53:00
10:53 PM,37.0,30.9,79,30.02,10.0,SE,10.4,-,N/A,,Overcast,140,2013-03-12 02:53:00
11:53 PM,35.1,30.9,85,30.01,10.0,SSE,11.5,-,N/A,,Overcast,150,2013-03-12 03:53:00